Weather History for Hill City, KS

Change the Weather History Date:

Saturday, July 20, 2013

  Actual Average Record
Temperature  
Mean Temperature 78 °F 80 °F  
Max Temperature 93 °F 93 °F 112 °F (1939)
Min Temperature 63 °F 66 °F 55 °F (1988)
Cooling Degree Days 11    
Growing Degree Days 26 (Base 50)    
Moisture  
Dew Point 64 °F    
Average Humidity 69    
Maximum Humidity 97    
Minimum Humidity 38    
Precipitation  
Precipitation T in 0.11 in 0.33 in (2000)
Month to date precipitation 0.23 2.39  
Year to date precipitation 7.25 13.65  
Sea Level Pressure  
Sea Level Pressure 29.87 in    
Wind  
Wind Speed 7 mph (ESE)    
Max Wind Speed 21 mph    
Max Gust Speed 29 mph    
Visibility 10 miles    
Events      
T = Trace of Precipitation, MM = Missing Value Source: NWS Daily Summary

Daily Weather History Graph

Daily Weather History Graph

Search for Another Location

Airport:

Trip Planner

Search our weather history database for the weather conditions in past years. The results will help you decide how hot, cold, wet, or windy it might be!

Date:

Astronomy

Jul. 20, 2013 Rise Set
Actual Time 6:29 AM CDT 9:01 PM CDT
Civil Twilight 5:58 AM CDT 9:32 PM CDT
Nautical Twilight 5:19 AM CDT 10:11 PM CDT
Astronomical Twilight 4:36 AM CDT 10:54 PM CDT
Moon 7:07 PM CDT (7/20) 4:10 AM CDT (7/20)
Length of Visible Light 15h 34m
Length of Day
14h 32m
Waxing Gibbous, 94% of the Moon is Illuminated
Jul 20
Waxing Gibbous
Jul 22
Full
Jul 29
Last Quarter
Aug 6
New
Aug 14
First Quarter

Hourly Weather History & Observations

Time (CDT) Temp. Heat Index Dew Point Humidity Pressure Visibility Wind Dir Wind Speed Gust Speed Precip Events Conditions
12:53 AM 72.0 °F - 66.9 °F 84% 29.94 in 10.0 mi SW 10.4 mph - N/A   Clear
1:53 AM 71.1 °F - 66.0 °F 84% 29.93 in 10.0 mi West 8.1 mph - N/A   Clear
2:53 AM 71.1 °F - 64.9 °F 81% 29.90 in 10.0 mi NW 5.8 mph - N/A   Clear
3:53 AM 69.1 °F - 64.0 °F 84% 29.88 in 10.0 mi NNW 5.8 mph - N/A   Clear
4:53 AM 66.9 °F - 64.0 °F 90% 29.88 in 10.0 mi Calm Calm - N/A   Clear
5:53 AM 64.0 °F - 62.1 °F 93% 29.90 in 10.0 mi Calm Calm - N/A   Clear
6:53 AM 63.0 °F - 62.1 °F 97% 29.90 in 10.0 mi Calm Calm - N/A   Clear
7:53 AM 69.1 °F - 64.9 °F 87% 29.92 in 10.0 mi SSE 3.5 mph - N/A   Partly Cloudy
8:53 AM 72.0 °F - 64.0 °F 76% 29.92 in 10.0 mi North 4.6 mph - 0.00 in   Overcast
9:53 AM 77.0 °F - 64.0 °F 64% 29.91 in 10.0 mi NNW 6.9 mph - N/A   Clear
10:53 AM 81.0 °F 82.2 °F 63.0 °F 54% 29.91 in 10.0 mi Calm Calm - N/A   Clear
11:53 AM 84.0 °F 84.5 °F 62.1 °F 47% 29.91 in 10.0 mi ESE 4.6 mph - N/A   Clear
12:53 PM 86.0 °F 86.3 °F 62.1 °F 44% 29.88 in 10.0 mi SSE 10.4 mph 16.1 mph N/A   Clear
1:53 PM 87.1 °F 87.0 °F 61.0 °F 41% 29.86 in 10.0 mi Calm Calm - N/A   Mostly Cloudy
2:53 PM 89.1 °F 88.8 °F 60.1 °F 38% 29.83 in 10.0 mi Variable 4.6 mph - N/A   Clear
3:53 PM 88.0 °F 90.7 °F 66.9 °F 49% 29.83 in 10.0 mi ENE 20.7 mph 28.8 mph N/A   Partly Cloudy
4:53 PM 87.1 °F 89.2 °F 66.0 °F 49% 29.81 in 10.0 mi East 17.3 mph 24.2 mph N/A   Clear
5:53 PM 86.0 °F 87.6 °F 64.9 °F 49% 29.82 in 10.0 mi ESE 16.1 mph 26.5 mph N/A   Partly Cloudy
6:53 PM 84.9 °F 85.9 °F 63.0 °F 48% 29.81 in 10.0 mi East 15.0 mph - N/A   Clear
7:53 PM 82.0 °F 84.5 °F 66.9 °F 60% 29.81 in 10.0 mi ESE 11.5 mph - N/A   Clear
8:53 PM 75.9 °F - 66.9 °F 74% 29.83 in 10.0 mi SE 10.4 mph - N/A   Clear
9:53 PM 73.0 °F - 66.9 °F 81% 29.84 in 10.0 mi ESE 6.9 mph - N/A   Clear
10:53 PM 72.0 °F - 66.9 °F 84% 29.88 in 10.0 mi ESE 5.8 mph - N/A   Clear
11:53 PM 70.0 °F - 66.9 °F 90% 29.86 in 10.0 mi SE 4.6 mph - N/A   Clear